Weather History for KCPS - January, 2013

Change the Weather History Date:

Thursday, January 10, 2013

  Actual Average (KSTL) Record (KSTL)
Temperature  
Mean Temperature 50 °F 32 °F  
Max Temperature 59 °F 39 °F 68 °F (1890)
Min Temperature 41 °F 24 °F -15 °F (1982)
Degree Days  
Heating Degree Days 15 34  
Month to date heating degree days 333  
Since 1 July heating degree days 2098  
Cooling Degree Days 0 0  
Month to date cooling degree days 0  
Year to date cooling degree days 0  
Moisture  
Dew Point 45 °F    
Average Humidity 86    
Maximum Humidity 100    
Minimum Humidity 60    
Precipitation  
Precipitation 0.38 in 0.08 in 2.09 in (1975)
Month to date precipitation 0.84  
Year to date precipitation 0.84  
Snow  
Snow 0.00 in 0.10 in 1.70 in (1905)
Month to date snowfall 1.8  
Since 1 July snowfall 6.9  
Snow Depth -    
Sea Level Pressure  
Sea Level Pressure 30.05 in    
Wind  
Wind Speed 8 mph (ESE)    
Max Wind Speed 12 mph    
Max Gust Speed 20 mph    
Visibility 5 miles    
Events Fog , Rain    
T = Trace of Precipitation, MM = Missing Value Source: NWS Daily Summary

Daily Weather History Graph

Daily Weather History Graph

Search for Another Location

Airport or City:

Trip Planner

Search our weather history database for the weather conditions in past years. The results will help you decide how hot, cold, wet, or windy it might be!

Date:

Astronomy

Jan. 10, 2013 Rise Set
Actual Time 7:18 AM CST 4:58 PM CST
Civil Twilight 6:48 AM CST 5:28 PM CST
Nautical Twilight 6:15 AM CST 6:00 PM CST
Astronomical Twilight 5:43 AM CST 6:32 PM CST
Moon 5:58 AM CST (1/10) 4:06 PM CST (1/10)
Length of Visible Light 10h 39m
Length of Day
9h 40m
Waning Crescent, 2% of the Moon is Illuminated
Jan 10
Waning Crescent
Jan 11
New
Jan 18
First Quarter
Jan 26
Full
Feb 3
Last Quarter

Hourly Weather History & Observations

Time (CST) Temp. Windchill Dew Point Humidity Pressure Visibility Wind Dir Wind Speed Gust Speed Precip Events Conditions
12:53 AM 41.0 °F 38.0 °F 32.0 °F 70% 30.46 in 10.0 mi East 4.6 mph - N/A   Clear
1:53 AM 43.0 °F 38.8 °F 32.0 °F 65% 30.43 in 10.0 mi ENE 6.9 mph - N/A   Clear
2:53 AM 44.1 °F 39.5 °F 32.0 °F 63% 30.43 in 10.0 mi East 8.1 mph - N/A   Clear
3:53 AM 45.0 °F 40.1 °F 32.0 °F 60% 30.38 in 10.0 mi East 9.2 mph - N/A   Mostly Cloudy
4:53 AM 44.1 °F 39.5 °F 32.0 °F 63% 30.35 in 10.0 mi East 8.1 mph - 0.00 in Rain Light Rain
5:53 AM 44.1 °F 40.1 °F 33.1 °F 65% 30.33 in 10.0 mi East 6.9 mph - 0.00 in Rain Light Rain
6:53 AM 44.1 °F 38.6 °F 33.1 °F 65% 30.31 in 10.0 mi East 10.4 mph - 0.00 in   Overcast
7:53 AM 43.0 °F 37.7 °F 35.1 °F 74% 30.30 in 10.0 mi ENE 9.2 mph - 0.01 in Rain Light Rain
8:19 AM 42.8 °F 37.5 °F 35.6 °F 76% 30.28 in 10.0 mi East 9.2 mph - 0.00 in   Overcast
8:53 AM 44.1 °F 38.6 °F 36.0 °F 73% 30.27 in 10.0 mi East 10.4 mph - 0.01 in Rain Light Rain
9:53 AM 43.0 °F 38.2 °F 39.0 °F 86% 30.25 in 2.0 mi ESE 8.1 mph - 0.07 in Rain Light Rain
9:58 AM 42.8 °F 39.3 °F 39.2 °F 87% 30.24 in 2.0 mi ESE 5.8 mph - 0.02 in Rain Rain
10:53 AM 44.1 °F 39.0 °F 41.0 °F 89% 30.22 in 4.0 mi ESE 9.2 mph - 0.04 in   Overcast
11:53 AM 45.0 °F 39.3 °F 42.1 °F 90% 30.15 in 3.0 mi ESE 11.5 mph - 0.00 in   Overcast
12:21 PM 44.6 °F 39.7 °F 42.8 °F 93% 30.10 in 2.0 mi ESE 9.2 mph 16.1 mph N/A   Overcast
12:53 PM 45.0 °F 40.6 °F 43.0 °F 93% 30.12 in 2.0 mi SE 8.1 mph - N/A   Overcast
1:20 PM 46.4 °F 42.4 °F 44.6 °F 93% 30.08 in 1.2 mi ESE 8.1 mph - N/A   Overcast
1:53 PM 46.0 °F 41.4 °F 45.0 °F 96% 30.06 in 1.5 mi SE 9.2 mph 19.6 mph N/A   Overcast
2:53 PM 48.0 °F - 46.0 °F 93% 30.01 in 3.0 mi SE 11.5 mph - N/A   Overcast
3:53 PM 50.0 °F - 48.0 °F 93% 29.98 in 1.5 mi ESE 8.1 mph - 0.00 in Rain Light Rain
4:53 PM 50.0 °F - 48.0 °F 93% 29.96 in 1.5 mi East 8.1 mph - 0.01 in Rain Light Rain
5:53 PM 50.0 °F - 48.9 °F 96% 29.94 in 1.5 mi ESE 6.9 mph - 0.01 in Rain Light Rain
6:53 PM 51.1 °F - 48.9 °F 92% 29.94 in 2.5 mi SE 6.9 mph - 0.01 in   Overcast
7:00 PM 51.8 °F - 48.2 °F 88% 29.93 in 3.0 mi SE 5.8 mph - N/A   Overcast
7:20 PM 51.8 °F - 50.0 °F 94% 29.92 in 1.2 mi SE 6.9 mph - N/A   Overcast
7:34 PM 51.8 °F - 50.0 °F 94% 29.90 in 0.5 mi ESE 5.8 mph - N/A Fog Fog
7:53 PM 52.0 °F - 51.1 °F 97% 29.90 in 0.5 mi SE 5.8 mph - N/A Fog Fog
8:53 PM 54.0 °F - 53.1 °F 97% 29.85 in 0.5 mi ESE 5.8 mph - 0.02 in Fog , Rain Light Rain
9:00 PM 53.6 °F - 53.6 °F 100% 29.84 in 10.0 mi ESE 6.9 mph - 0.00 in   Overcast
9:09 PM 55.4 °F - 53.6 °F 94% 29.83 in 2.0 mi ESE 8.1 mph - 0.01 in Rain Light Rain
9:20 PM 55.4 °F - 53.6 °F 94% 29.82 in 2.0 mi ESE 10.4 mph - 0.06 in Rain Heavy Rain
9:46 PM 55.4 °F - 53.6 °F 94% 29.81 in 2.0 mi ESE 8.1 mph - 0.07 in Rain Light Rain
9:53 PM 55.9 °F - 54.0 °F 93% 29.80 in 2.0 mi ESE 6.9 mph - 0.08 in Rain Light Rain
9:59 PM 55.4 °F - 53.6 °F 94% 29.80 in 6.0 mi SE 8.1 mph - 0.00 in Rain Light Rain
10:11 PM 55.4 °F - 53.6 °F 94% 29.79 in 6.0 mi SSE 8.1 mph - 0.02 in Rain Light Rain
10:27 PM 57.2 °F - 55.4 °F 94% 29.79 in 4.0 mi SSE 8.1 mph - 0.06 in Rain Rain
10:53 PM 59.0 °F - 57.0 °F 93% 29.78 in 4.0 mi SSE 8.1 mph 17.3 mph 0.08 in Rain Rain
11:25 PM 59.0 °F - 55.4 °F 88% 29.80 in 10.0 mi SW 4.6 mph - 0.04 in Rain Light Rain
11:53 PM 59.0 °F - 55.0 °F 87% 29.79 in 10.0 mi SW 5.8 mph - 0.04 in   Scattered Clouds